GSAT-19

Last updated on Thu Nov 21 2024 00:02:43 GMT+0000 (Coordinated Universal Time)

1 42747U 17031A 24323.87533690 .00000128 00000+0 00000+0 0 9990 2 42747 0.0484 102.5959 0002310 94.0891 224.7279 1.00272514 27363
UTC large
Height (km)
Speed (km/s)
/
Latitude / Longitude
Inclination (degrees)
Orbital Period (minutes)
Azimuth
Elevation
Range (km)
Doppler Factor

Next 0 passes for location: London (51.5072 / 0.1276)

Sorry there are no passes over London.